www.pogodaiklimat.ru

Погода и климат >> Архив погоды >> Бельгия >> Бейтем


ПОГОДА в Бейтеме

  • Прогноз погоды в Бейтеме
  • Монитор погоды в Бейтеме

АРХИВ ПОГОДЫ в Бейтеме

Время (UTC), дата Ветер
(напр.,м/с)
 
Видим.   Явления Облачность Т
(С)
Тd
(С)
f
(%)
Тe
(С)
Тes
(С)
Комфортность P
(гПа)
Po
(гПа)
Тmin
(С)
Tmax
(С)
R
(мм)
R24
(мм)
S
(см)
07 9.09 ЮЗ 3 н/о н/о +9.7 +9.4 98 +7 +7 1017.5 1014.3 37
08 9.09 Ю 4 н/о н/о +11.9 +9.5 85 +10 +10 1017.2 1014.0 75
09 9.09 Ю 3 н/о н/о +12.8 +9.6 81 +11 +11 1016.6 1013.4 66
10 9.09 ЮЗ 4 н/о н/о +15.3 +9.1 66 +14 +14 1016.0 1012.8 150
11 9.09 ЮЗ 4 н/о н/о +15.7 +9.0 64 +15 +15 1015.4 1012.3 135
12 9.09 ЮЗ 5 н/о н/о +15.8 +8.1 60 +15 +15 1015.1 1012.0 131
13 9.09 ЮЗ 4 н/о н/о +16.2 +7.6 57 +16 +16 1015.0 1011.8 80
14 9.09 ЮЗ 3 н/о н/о +16.4 +7.8 57 +16 +16 1014.5 1011.4 117
15 9.09 Ю 3 н/о н/о +16.1 +8.3 60 +16 +16 1014.0 1010.9 89
16 9.09 Ю 3 н/о н/о +16.4 +8.0 58 +16 +16 1013.7 1010.6 60
17 9.09 Ю 2 н/о н/о +16.2 +7.6 57 +16 +16 1013.6 1010.4 33
18 9.09 ЮВ 2
{8}
н/о н/о +15.6 +8.2 61 +16 +16 1013.8 1010.7 +16.6 10
19 9.09 ЮВ 2 н/о н/о +14.6 +8.5 67 +14 +14 1014.2 1011.0 1
20 9.09 В 2 н/о н/о +12.0 +9.0 82 +11 +11 1014.4 1011.3
21 9.09 В 1 н/о н/о +10.6 +8.8 89 +10 +10 1014.9 1011.7
22 9.09 В 1 н/о н/о +9.6 +8.5 93 +9 +9 1015.0 1011.8
23 9.09 В 1 н/о н/о +8.0 +7.6 97 +7 +7 1015.1 1011.9
00 10.09 ЮВ 2 н/о н/о +7.8 +7.5 98 +6 +6 1015.1 1011.9 102
01 10.09 СВ 1 н/о н/о +6.7 +6.5 99 +5 +5 1015.6 1012.4
02 10.09 штиль 0 н/о н/о +6.4 +6.4 100 +5 +5 1016.0 1012.7
03 10.09 штиль 0 н/о н/о +5.6 +5.6 100 +4 +4 1016.1 1012.8
04 10.09 штиль 0 н/о н/о +5.4 +5.4 100 +4 +4 1016.1 1012.8
05 10.09 СЗ 1 н/о н/о +4.8 +4.8 100 +3 +3 1016.3 1013.1
06 10.09 З 1
{2}
н/о н/о +5.6 +5.6 100 +4 +4 1017.1 1013.9 +4.7 2
07 10.09 штиль 0 н/о н/о +9.1 +8.8 98 +8 +8 1017.7 1014.5 29
08 10.09 СЗ 1 н/о н/о +13.0 +11.0 88 +13 +13 1018.3 1015.2 75
10 10.09 СЗ 2 н/о н/о +18.5 +10.5 60 +19 +19 1019.1 1015.9 155
11 10.09 С 2 н/о н/о +19.1 +9.2 53 +20 +20 1019.2 1016.1 178
12 10.09 СЗ 2
{6}
н/о н/о +20.6 +10.4 52 +23 +23 комфорт 1019.3 1016.2
13 10.09 СЗ 4 н/о н/о +20.0 +10.3 54 +21 +21 комфорт 1019.5 1016.4 92
14 10.09 СЗ 4 н/о н/о +19.6 +10.1 54 +21 +21 комфорт 1019.4 1016.3 139
15 10.09 СЗ 4 н/о н/о +19.7 +10.5 55 +21 +21 комфорт 1019.5 1016.3 129
16 10.09 СЗ 3 н/о н/о +19.0 +10.4 57 +20 +20 1019.9 1016.8 93
17 10.09 СЗ 4 н/о н/о +17.9 +10.3 61 +18 +18 1020.4 1017.3 59
18 10.09 СЗ 2
{7}
н/о н/о +15.9 +10.4 70 +16 +16 1020.4 1017.3 +20.2 10
19 10.09 С 2 н/о н/о +15.3 +11.1 76 +15 +15 1020.9 1017.8
20 10.09 СВ 1 н/о н/о +14.5 +12.3 87 +15 +15 1021.4 1018.2
21 10.09 Ю 1 н/о н/о +14.2 +12.5 90 +14 +14 1021.8 1018.6
22 10.09 Ю 1 н/о н/о +14.3 +12.1 87 +15 +15 1021.8 1018.6
23 10.09 ЮЗ 2 н/о н/о +13.4 +11.6 89 +13 +13 1021.8 1018.6
00 11.09 ЮЗ 3 н/о н/о +12.5 +10.6 88 +11 +11 1022.1 1018.9 133
01 11.09 ЮЗ 3 н/о н/о +11.9 +10.4 91 +10 +10 1021.8 1018.6
02 11.09 ЮЗ 2 н/о н/о +12.2 +11.0 92 +11 +11 1021.8 1018.6
03 11.09 Ю 3 н/о н/о +12.6 +11.4 92 +11 +11 1021.7 1018.5
04 11.09 ЮЗ 3 н/о н/о +12.9 +11.8 93 +11 +11 1021.2 1018.0
05 11.09 ЮЗ 3 н/о н/о +13.3 +12.5 95 +12 +12 1021.3 1018.1
06 11.09 ЮЗ 3
{5}
н/о н/о +13.7 +12.9 95 +12 +12 1021.6 1018.5 +11.9
07 11.09 Ю 3 н/о н/о +14.0 +13.3 96 +13 +13 1022.0 1018.8 6
08 11.09 Ю 4 н/о н/о +14.6 +13.8 95 +13 +13 1021.7 1018.6 15
09 11.09 ЮЗ 5 н/о н/о +15.8 +14.0 89 +15 +15 1022.1 1018.9 35
10 11.09 ЮЗ 5 н/о н/о +16.6 +13.7 83 +16 +16 1022.2 1019.0 37
11 11.09 ЮЗ 6 н/о н/о +17.1 +13.3 78 +16 +16 1022.2 1019.0 59
12 11.09 ЮЗ 6 н/о н/о +16.4 +13.1 81 +15 +15 1022.6 1019.4 52
13 11.09 ЮЗ 5 н/о н/о +17.7 +14.0 79 +17 +17 1022.2 1019.1 51
14 11.09 ЮЗ 7 н/о н/о +18.8 +14.4 76 +19 +19 1022.1 1018.9 89
15 11.09 ЮЗ 7
{12}
н/о н/о +18.3 +15.0 81 +18 +18 1022.2 1019.1 34
16 11.09 ЮЗ 6 н/о н/о +18.2 +15.5 84 +18 +18 1022.3 1019.2 24
17 11.09 ЮЗ 4 н/о н/о +17.3 +16.3 94 +17 +17 1022.7 1019.5 12
18 11.09 ЮЗ 4
{12}
н/о н/о +16.9 +16.6 98 +16 +16 1022.7 1019.5 +19.0 3
19 11.09 ЮЗ 4 н/о н/о +17.0 +16.8 99 +16 +16 1023.5 1020.4
20 11.09 ЮЗ 4 н/о н/о +17.0 +16.9 99 +16 +16 1024.0 1020.9
21 11.09 ЮЗ 4 н/о н/о +17.3 +16.9 97 +17 +17 1024.3 1021.1
22 11.09 З 4 н/о н/о +17.5 +17.0 97 +17 +17 1024.5 1021.3
23 11.09 З 4 н/о н/о +17.6 +16.8 95 +17 +17 1024.5 1021.3
00 12.09 З 4
{8}
н/о н/о +17.6 +16.8 95 +17 +17 1025.0 1021.8 42
01 12.09 ЮЗ 3 н/о н/о +17.5 +16.9 96 +17 +17 1025.2 1022.1
02 12.09 ЮЗ 2 н/о н/о +17.1 +16.7 97 +17 +17 1025.3 1022.2
03 12.09 З 3 н/о н/о +17.2 +16.3 94 +17 +17 1025.8 1022.7
04 12.09 ЮЗ 3 н/о н/о +16.9 +16.3 96 +17 +17 1026.1 1022.9
05 12.09 ЮЗ 3 н/о н/о +17.1 +16.6 97 +17 +17 1026.3 1023.1
06 12.09 ЮЗ 3
{6}
н/о н/о +16.9 +16.4 97 +17 +17 1026.9 1023.7 +16.8 0.4
07 12.09 ЮЗ 2 н/о н/о +17.7 +16.7 94 +18 +18 1027.4 1024.2 26
08 12.09 З 5 н/о н/о +18.6 +15.6 83 +19 +19 1028.1 1024.9 51
09 12.09 З 5 н/о н/о +19.5 +14.1 71 +21 +21 комфорт 1028.8 1025.7 116
10 12.09 З 5 н/о н/о +20.4 +14.0 67 +23 +23 комфорт 1029.5 1026.3 131
11 12.09 З 4 н/о н/о +22.0 +14.1 61 +25 +25 комфорт 1029.5 1026.4 183
12 12.09 З 6 н/о н/о +22.8 +14.1 58 +26 +26 жарко 1029.4 1026.3 190
13 12.09 З 4 н/о н/о +22.7 +15.0 62 +27 +27 душно 1029.4 1026.3 143
14 12.09 З 5 н/о н/о +21.9 +15.8 68 +26 +26 душно 1029.6 1026.5 84
15 12.09 ЮЗ 5 н/о н/о +21.3 +17.0 76 +25 +25 комфорт 1029.4 1026.3 54
16 12.09 ЮЗ 5 н/о н/о +21.2 +17.1 77 +25 +25 комфорт 1029.6 1026.5 76
17 12.09 ЮЗ 5 н/о н/о +20.2 +16.7 80 +23 +23 комфорт 1030.0 1026.8 27
18 12.09 ЮЗ 5
{10}
н/о н/о +19.3 +16.2 82 +21 +21 комфорт 1029.8 1026.6 +23.4
19 12.09 ЮЗ 6 н/о н/о +18.7 +16.2 85 +19 +19 1029.8 1026.7
20 12.09 З 5 н/о н/о +18.3 +15.2 82 +18 +18 1030.1 1026.9
21 12.09 З 4 н/о н/о +18.0 +15.5 85 +18 +18 1030.0 1026.9
22 12.09 ЮЗ 4 н/о н/о +17.9 +15.7 87 +18 +18 1030.2 1027.0
23 12.09 З 3 н/о н/о +17.8 +15.8 88 +18 +18 1030.2 1027.0
00 13.09 З 5 н/о н/о +17.9 +15.4 85 +17 +17 1030.3 1027.1 109
01 13.09 З 4 н/о н/о +17.4 +14.8 85 +17 +17 1030.5 1027.3
02 13.09 З 5 н/о н/о +17.5 +15.0 85 +17 +17 1030.6 1027.5
03 13.09 З 3 н/о н/о +17.2 +15.0 87 +17 +17 1030.6 1027.5
04 13.09 З 3 н/о н/о +17.1 +15.2 89 +17 +17 1030.8 1027.6
05 13.09 З 3 н/о н/о +17.1 +15.4 90 +17 +17 1031.2 1028.1
06 13.09 З 3
{11}
н/о н/о +17.1 +15.7 91 +17 +17 1031.9 1028.7 +17.1
07 13.09 СЗ 3 н/о н/о +17.4 +16.3 93 +17 +17 1032.3 1029.1 8
08 13.09 СЗ 3 н/о н/о +18.5 +17.3 93 +19 +19 1032.9 1029.7 35
09 13.09 С 3 н/о н/о +19.3 +17.1 87 +21 +21 комфорт 1033.0 1029.9 69
10 13.09 С 4 н/о н/о +19.1 +17.0 88 +21 +21 комфорт 1033.7 1030.6 63
11 13.09 н/о н/о +19.8 +16.1 79 1033.8 1030.6 108
12 13.09 С 4 н/о н/о +20.2 +15.0 72 +23 +23 комфорт 1034.0 1030.8 118
13 13.09 С 4 н/о н/о +20.7 +13.9 65 +23 +23 комфорт 1034.0 1030.8 150
14 13.09 С 4 н/о н/о +20.8 +13.7 64 +24 +24 комфорт 1034.1 1030.9 158
15 13.09 С 4 н/о н/о +19.8 +13.2 66 +22 +22 комфорт 1034.0 1030.8 89
16 13.09 С 4 н/о н/о +19.4 +13.2 67 +21 +21 комфорт 1034.0 1030.8 93
17 13.09 С 4 н/о н/о +17.7 +13.5 76 +17 +17 1034.4 1031.2 53
18 13.09 С 4
{8}
н/о н/о +16.5 +13.0 80 +16 +16 1034.6 1031.4 +21.2 20
19 13.09 С 3 н/о н/о +15.3 +12.8 85 +15 +15 1035.4 1032.2
20 13.09 С 3 н/о н/о +14.5 +12.4 87 +14 +14 1035.2 1032.0
21 13.09 СВ 2 н/о н/о +13.5 +11.9 90 +13 +13 1035.6 1032.3
22 13.09 СВ 2 н/о н/о +12.9 +11.7 92 +12 +12 1035.7 1032.5
23 13.09 С 1 н/о н/о +11.6 +10.9 95 +11 +11 1035.9 1032.6
00 14.09 С 1 н/о н/о +10.8 +10.5 98 +10 +10 1035.5 1032.3 97
01 14.09 С 2 н/о н/о +11.2 +10.8 97 +10 +10 1034.9 1031.7
02 14.09 С 1 н/о н/о +10.0 +9.9 99 +9 +9 1034.7 1031.4
03 14.09 СВ 2 н/о н/о +12.0 +11.5 97 +11 +11 1034.7 1031.4
04 14.09 СВ 1 н/о н/о +10.6 +10.4 99 +10 +10 1034.4 1031.2
05 14.09 СВ 1 н/о н/о +10.7 +10.6 99 +10 +10 1034.0 1030.7
06 14.09 СВ 1
{4}
н/о н/о +9.0 +9.0 100 +8 +8 1034.0 1030.7 +8.8 1
07 14.09 В 1 н/о н/о +12.9 +12.4 97 +13 +13 1034.2 1030.9 25
08 14.09 СВ 2 н/о н/о +14.5 +12.4 87 +14 +14 1034.2 1030.9 70
09 14.09 В 2 н/о н/о +17.0 +12.9 77 +17 +17 1034.0 1030.8 115
10 14.09 В 3 н/о н/о +19.0 +12.9 68 +20 +20 1033.5 1030.3 151
11 14.09 В 3 н/о н/о +20.3 +12.1 59 +23 +23 комфорт 1032.9 1029.7 170
12 14.09 В 2 н/о н/о +20.9 +11.2 54 +24 +24 комфорт 1032.4 1029.3 183
13 14.09 СВ 3 н/о н/о +21.8 +11.1 51 +24 +24 комфорт 1031.8 1028.7 183
14 14.09 В 2 н/о н/о +22.2 +10.5 47 +24 +24 комфорт 1031.2 1028.1 168
15 14.09 СВ 2 н/о н/о +22.2 +10.0 46 +24 +24 комфорт 1030.0 1026.9 142
16 14.09 СВ 2 н/о н/о +21.8 +9.5 45 +23 +23 комфорт 1029.5 1026.4 95
17 14.09 СВ 2 н/о н/о +21.0 +10.5 51 +24 +24 комфорт 1029.2 1026.0 52
18 14.09 СВ 1
{5}
н/о н/о +17.4 +11.8 70 +18 +18 1029.1 1025.9 +22.3 14
19 14.09 СВ 1 н/о н/о +13.6 +11.8 89 +14 +14 1029.0 1025.8
20 14.09 С 1 н/о н/о +12.0 +10.9 93 +12 +12 1029.0 1025.8
21 14.09 штиль 0 н/о н/о +10.6 +10.1 97 +10 +10 1028.9 1025.7
22 14.09 штиль 0 н/о н/о +9.6 +9.3 98 +9 +9 1028.4 1025.2
23 14.09 СЗ 1 н/о н/о +9.1 +9.1 100 +8 +8 1028.0 1024.7
00 15.09 З 1 н/о н/о +8.5 +8.5 100 +8 +8 1027.5 1024.2 137
01 15.09 штиль 0 н/о н/о +8.0 +8.0 100 +7 +7 1027.0 1023.7
02 15.09 З 1 н/о н/о +7.8 +7.8 100 +7 +7 1026.7 1023.4
03 15.09 Ю 1 н/о н/о +7.1 +7.1 100 +6 +6 1026.1 1022.8
04 15.09 Ю 1 н/о н/о +6.6 +6.6 100 +5 +5 1025.8 1022.5
05 15.09 штиль 0 н/о н/о +6.2 +6.2 100 +5 +5 1025.6 1022.3
06 15.09 штиль 0
{2}
н/о н/о +6.3 +6.3 100 +5 +5 1025.9 1022.6 +6.1 1
07 15.09 ЮЗ 2 н/о н/о +11.3 +11.0 98 +10 +10 1025.4 1022.2 25
08 15.09 ЮЗ 2 н/о н/о +15.2 +12.5 84 +15 +15 1025.5 1022.4 70
09 15.09 З 3 н/о н/о +19.0 +13.4 70 +20 +20 1025.8 1022.7 112
10 15.09 З 3 н/о н/о +21.1 +13.2 61 +23 +23 комфорт 1025.8 1022.7 139
11 15.09 З 3 н/о н/о +22.6 +11.0 48 +25 +25 комфорт 1025.4 1022.3 176
12 15.09 СЗ 3 н/о н/о +23.3 +9.7 42 +25 +25 комфорт 1024.9 1021.8 184
13 15.09 З 3 н/о н/о +24.2 +8.3 36 +25 +25 комфорт 1024.0 1021.0 183
14 15.09 СЗ 3 н/о н/о +25.0 +8.0 34 +25 +25 комфорт 1023.7 1020.6 166
15 15.09 С 3 н/о н/о +24.2 +8.2 36 +25 +25 комфорт 1023.2 1020.1 140
16 15.09 СЗ 3 н/о н/о +23.5 +9.0 40 +24 +24 комфорт 1022.8 1019.7 101
17 15.09 СЗ 3 н/о н/о +21.8 +7.8 41 +23 +23 комфорт 1022.9 1019.8 55
18 15.09 СЗ 2
{6}
н/о н/о +19.2 +11.1 59 +21 +21 комфорт 1023.0 1019.9 +25.3 15
19 15.09 С 1 н/о н/о +16.8 +13.0 78 +18 +18 1023.2 1020.1
20 15.09 штиль 0 н/о н/о +14.6 +12.8 89 +14 +14 1023.3 1020.2
21 15.09 Ю 1 н/о н/о +14.6 +13.3 92 +15 +15 1023.2 1020.0
22 15.09 СЗ 1 н/о н/о +14.2 +13.2 94 +14 +14 1023.1 1019.9
23 15.09 ЮЗ 1 н/о н/о +13.8 +13.1 96 +14 +14 1023.2 1020.0
00 16.09 С 1 н/о н/о +12.7 +12.3 97 +13 +13 1022.8 1019.6 137
01 16.09 Ю 2 н/о н/о +13.6 +13.3 98 +13 +13 1022.5 1019.3
02 16.09 ЮВ 1 н/о н/о +13.4 +12.9 97 +13 +13 1022.1 1018.9
03 16.09 ЮЗ 1 н/о н/о +13.1 +12.7 97 +13 +13 1021.7 1018.5
04 16.09 Ю 2 н/о н/о +14.5 +11.7 83 +14 +14 1021.0 1017.9
05 16.09 ЮЗ 2 н/о н/о +14.0 +11.6 85 +13 +13 1020.9 1017.7

 

Местоположение метеостанции Бейтем (Бельгия): широта 50.90 долгота 3.12 высота над уровнем моря 22 м.

В архиве по умолчанию представлена погода в Бейтеме за последнюю неделю. Архивные данные за месяц целиком и за предыдущие месяцы, начиная с января 2011 года, Вы можете получить, выбрав интересующий диапазон дат из раскрывающегося списка и нажав кнопку "Ввод!".


*Определитесь, кто Вы:
робот инопланетянин человек

Внимание! Время в таблицах - всемирное. Для получения местного времени необходимо прибавить поправку, которая равна 1 ч.

Смотрите также архив погоды в соседних городах и на ближайших метеорологических станциях:

Погода в Лилле (Франция) (37 км)
Погода в Остенде (Бельгия) (38 км)
Погода в Коксейде (Бельгия) (39 км)
Погода в Семмерзэйке (Бельгия) (39 км)
Погода в Зебрюгге (Бельгия) (48 км)
Погода в Мелле (Бельгия) (50 км)
Погода в Цадзанде (Нидерланды) (56 км)
Погода в Дюнкерке (Франция) (58 км)
Погода в Генте (Бельгия) (58 км)
Погода в Шьевре (Бельгия) (62 км)

Пояснения к столбцам:

Ветер - указаны скорость ветра в м/с - средняя за 10 мин, порывы в срок и между сроками (в фигурных скобках) и направление, откуда дует ветер: С - северный, СВ - северо-восточный, В - восточный, ЮВ - юго-восточный, Ю - южный, ЮЗ - юго-западный, З - западный, СЗ - северо-западный.
Видимость - горизонтальная дальность видимости в метрах или километрах. При видимости от 1 до 10 км при отсутствии осадков обычно наблюдается дымка, при ухудшении видимости до 1 км и менее - туман. В сухую погоду видимость может ухудшаться дымом, пылью или мглою.
Явления - указаны атмосферные явления, наблюдавшиеся в срок или в последний час перед сроком; фигурными скобками обозначены явления, наблюдавшиеся между сроками (за 1-3 часа до срока); квадратными скобками обозначены град или гололедные отложения с указанием их диаметра в мм.
Облачность - указаны через наклонную черту общая и нижняя облачность в баллах и высота нижней границы облаков в метрах; квадратными скобками обозначены формы облаков: Ci - перистые, Cs - перисто-слоистые, Cc - перисто-кучевые, Ac - высококучевые, As - высокослоистые, Sc - слоисто-кучевые, Ns - слоисто-дождевые, Cu - кучевые, Cb - кучево-дождевые. Подробнее классификацию облаков см. в Атласе облаков (PDF).
T - Температура воздуха - температура, измеренная на высоте 2 м над землей.
Td - Температура точки росы - температура, при понижении до которой содержащийся в воздухе водяной пар достигнет насыщения.
f - Относительная влажность воздуха - влажноcть воздуха, измеренная на высоте 2 м над землей.
Te - Эффективная температура - температура, которую ощущает одетый по сезону человек в тени. Характеристика душности погоды. При расчете учитывается влияние влажности воздуха и скорости ветра на теплоощущения человека.
Tes - Эффективная температура на солнце - температура, которую ощущает человек, с поправкой на солнечный нагрев. Характеристика знойности погоды. Зависит от высоты солнца над горизонтом, облачности и скорости ветра. Ночью, в пасмурную погоду, а также при ветре 12 м/с и более поправка равна нулю.
P - Атмосферное давление - приведенное к уровню моря атмосферное давление.
Po - Атмосферное давление - измеренное на уровне метеостанции атмосферное давление.
Tmin - Минимальная температура - минимум температуры воздуха на высоте 2 м над землей.
Tmax - Максимальная температура - максимум температуры воздуха на высоте 2 м над землей.
R - Количество осадков - Количество выпавших осадков за период времени, мм. При наведении курсора мыши на число - период времени, за который выпало указанное количество осадков.
R24 - Количество осадков - Количество выпавших осадков за 24 часа, мм.
S - Снежный покров - Высота снежного покрова, см. При наведении курсора мыши на число - состояние снежного покрова и степень покрытия местности в баллах.